User: anonymous
Location: Walnut Point State Park
(39.6958°N, 88.0345°W)
Time: 09:52:25
(UTC-05:00)
Language:

Iridium 75 - Orbit

View from above orbital plane
View from above orbital plane
View from above satellite
View from above satellite

Ground track
Ground track

The orbit data is extracted from the following two-line orbital elements,

1 25346U 98032E   14238.12602329  .00000188  00000-0  59929-4 0  9451
2 25346 086.3949 292.9740 0002361 109.2392 305.5623 14.34219547852607
Epoch (UTC): 26 August 2014 03:01:28
Eccentricity: 0.0002361
inclination: 86.3949°
perigee height: 776 km
apogee height: 779 km
right ascension of ascending node: 292.9740°
argument of perigee: 109.2392°
revolutions per day: 14.34219547
mean anomaly at epoch: 305.5623°
orbit number at epoch: 85260

The dashed part of the orbit path shows where the satellite is in the earth's shadow,  

DLR